When you browse on this site, cookies collect data to enhance your experience and personalize the content and advertising you see.
Visit our Privacy Policy to learn more. By continuing to use the site, you agree to this use of cookies and data.
  • In Norway
  • List of Countries
  • For 7 days
  • Water Temperature
  • Satellite Maps
  • Weather Map
  • Weather Widgets
  • user-avatar
    Login

    Hourly Weather Tafilah

    Today, 21 June, Friday

    Time Temperature Precipitation Wind Pressure Humidity
    00:00 +25°C° 0 mm 1 mps 697 mmHg 32%
    01:00 +25°C° 0 mm 1 mps 697 mmHg 34%
    02:00 +24°C° 0 mm 1 mps 696 mmHg 36%
    03:00 +24°C° 0 mm 1 mps 697 mmHg 37%
    04:00 +23°C° 0 mm 1 mps 697 mmHg 38%
    05:00 +23°C° 0 mm 1 mps 697 mmHg 38%
    06:00 +25°C° 0 mm 2 mps 697 mmHg 35%
    07:00 +26°C° 0 mm 2 mps 698 mmHg 31%
    08:00 +28°C° 0 mm 2 mps 698 mmHg 28%
    09:00 +29°C° 0 mm 3 mps 698 mmHg 25%
    10:00 +31°C° 0 mm 3 mps 698 mmHg 23%
    11:00 +33°C° 0 mm 4 mps 698 mmHg 20%
    12:00 +33°C° 0 mm 4 mps 697 mmHg 20%
    13:00 +34°C° 0 mm 4 mps 697 mmHg 19%
    14:00 +35°C° 0 mm 5 mps 697 mmHg 19%
    15:00 +34°C° 0 mm 5 mps 697 mmHg 20%
    16:00 +33°C° 0 mm 6 mps 697 mmHg 21%
    17:00 +32°C° 0 mm 6 mps 697 mmHg 23%
    18:00 +29°C° 0 mm 5 mps 697 mmHg 30%
    19:00 +27°C° 0 mm 4 mps 697 mmHg 36%
    20:00 +25°C° 0 mm 3 mps 697 mmHg 43%
    21:00 +25°C° 0 mm 3 mps 697 mmHg 47%
    22:00 +24°C° 0 mm 2 mps 697 mmHg 51%
    23:00 +23°C° 0 mm 2 mps 697 mmHg 55%

    Tomorrow, 22 June, Saturday

    Time Temperature Precipitation Wind Pressure Humidity
    00:00 +21°C° 0 mm 2 mps 697 mmHg 56%
    01:00 +21°C° 0 mm 2 mps 697 mmHg 58%
    02:00 +20°C° 0 mm 2 mps 696 mmHg 59%
    03:00 +20°C° 0 mm 2 mps 696 mmHg 60%
    04:00 +19°C° 0 mm 2 mps 696 mmHg 61%
    05:00 +19°C° 0 mm 2 mps 696 mmHg 62%
    06:00 +21°C° 0 mm 2 mps 697 mmHg 55%
    07:00 +23°C° 0 mm 2 mps 697 mmHg 47%
    08:00 +25°C° 0 mm 2 mps 698 mmHg 40%
    09:00 +26°C° 0 mm 2 mps 698 mmHg 35%
    10:00 +28°C° 0 mm 2 mps 698 mmHg 30%
    11:00 +30°C° 0 mm 2 mps 698 mmHg 25%
    12:00 +31°C° 0 mm 3 mps 697 mmHg 23%
    13:00 +33°C° 0 mm 3 mps 697 mmHg 22%
    14:00 +34°C° 0 mm 3 mps 697 mmHg 20%
    15:00 +33°C° 0 mm 4 mps 697 mmHg 22%
    16:00 +33°C° 0 mm 4 mps 696 mmHg 23%
    17:00 +33°C° 0 mm 5 mps 696 mmHg 25%
    18:00 +30°C° 0 mm 4 mps 696 mmHg 31%
    19:00 +28°C° 0 mm 4 mps 696 mmHg 37%
    20:00 +27°C° 0 mm 3 mps 697 mmHg 44%
    21:00 +26°C° 0 mm 3 mps 697 mmHg 47%
    22:00 +25°C° 0 mm 2 mps 697 mmHg 51%
    23:00 +24°C° 0 mm 2 mps 697 mmHg 55%

    Day after tomorrow, 23 June, Sunday

    Time Temperature Precipitation Wind Pressure Humidity
    00:00 +23°C° 0 mm 2 mps 696 mmHg 56%
    01:00 +23°C° 0 mm 2 mps 696 mmHg 58%
    02:00 +21°C° 0 mm 2 mps 696 mmHg 59%
    03:00 +22°C° 0 mm 1 mps 696 mmHg 58%
    04:00 +21°C° 0 mm 1 mps 696 mmHg 58%
    05:00 +21°C° 0 mm 1 mps 696 mmHg 57%
    06:00 +23°C° 0 mm 1 mps 697 mmHg 50%
    07:00 +25°C° 0 mm 1 mps 697 mmHg 43%
    08:00 +27°C° 0 mm 1 mps 697 mmHg 36%
    09:00 +28°C° 0 mm 2 mps 697 mmHg 32%
    10:00 +30°C° 0 mm 2 mps 697 mmHg 28%
    11:00 +33°C° 0 mm 3 mps 697 mmHg 24%
    12:00 +34°C° 0 mm 3 mps 697 mmHg 22%
    13:00 +35°C° 0 mm 3 mps 697 mmHg 19%
    14:00 +36°C° 0 mm 3 mps 697 mmHg 17%
    15:00 +36°C° 0 mm 4 mps 696 mmHg 19%
    16:00 +35°C° 0 mm 4 mps 696 mmHg 20%
    17:00 +35°C° 0 mm 5 mps 696 mmHg 22%
    18:00 +33°C° 0 mm 4 mps 696 mmHg 28%
    19:00 +30°C° 0 mm 3 mps 696 mmHg 35%
    20:00 +28°C° 0 mm 2 mps 696 mmHg 42%
    21:00 +28°C° 0 mm 2 mps 696 mmHg 46%
    22:00 +27°C° 0 mm 2 mps 696 mmHg 50%
    23:00 +26°C° 0 mm 2 mps 696 mmHg 55%

    24 June, Monday

    Time Temperature Precipitation Wind Pressure Humidity
    00:00 +25°C° 0 mm 2 mps 696 mmHg 54%
    01:00 +25°C° 0 mm 2 mps 696 mmHg 54%
    02:00 +25°C° 0 mm 2 mps 696 mmHg 54%
    03:00 +24°C° 0 mm 1 mps 696 mmHg 52%
    04:00 +24°C° 0 mm 1 mps 696 mmHg 50%
    05:00 +23°C° 0 mm 1 mps 696 mmHg 48%
    06:00 +25°C° 0 mm 2 mps 696 mmHg 41%
    07:00 +27°C° 0 mm 2 mps 697 mmHg 35%
    08:00 +29°C° 0 mm 3 mps 697 mmHg 28%
    09:00 +30°C° 0 mm 3 mps 697 mmHg 25%
    10:00 +33°C° 0 mm 3 mps 697 mmHg 22%
    11:00 +35°C° 0 mm 3 mps 697 mmHg 19%
    12:00 +36°C° 0 mm 3 mps 697 mmHg 16%
    13:00 +38°C° 0 mm 4 mps 696 mmHg 14%
    14:00 +40°C° 0 mm 4 mps 696 mmHg 12%
    15:00 +40°C° 0 mm 4 mps 696 mmHg 12%
    16:00 +38°C° 0 mm 4 mps 696 mmHg 13%
    17:00 +37°C° 0 mm 5 mps 695 mmHg 14%
    18:00 +35°C° 0 mm 4 mps 695 mmHg 20%
    19:00 +33°C° 0 mm 3 mps 695 mmHg 26%
    20:00 +30°C° 0 mm 3 mps 695 mmHg 32%
    21:00 +29°C° 0 mm 3 mps 695 mmHg 36%
    22:00 +28°C° 0 mm 2 mps 696 mmHg 39%
    23:00 +27°C° 0 mm 2 mps 696 mmHg 43%

    25 June, Tuesday

    Time Temperature Precipitation Wind Pressure Humidity
    00:00 +26°C° 0 mm 2 mps 696 mmHg 45%
    01:00 +26°C° 0 mm 2 mps 696 mmHg 47%
    02:00 +25°C° 0 mm 1 mps 695 mmHg 48%
    03:00 +25°C° 0 mm 1 mps 696 mmHg 50%
    04:00 +25°C° 0 mm 1 mps 696 mmHg 51%
    05:00 +25°C° 0 mm 1 mps 696 mmHg 52%
    06:00 +27°C° 0 mm 2 mps 696 mmHg 46%
    07:00 +29°C° 0 mm 2 mps 696 mmHg 40%
    08:00 +31°C° 0 mm 3 mps 697 mmHg 33%
    09:00 +32°C° 0 mm 2 mps 697 mmHg 30%
    10:00 +35°C° 0 mm 2 mps 697 mmHg 26%
    11:00 +36°C° 0 mm 2 mps 697 mmHg 23%
    12:00 +38°C° 0 mm 2 mps 697 mmHg 20%
    13:00 +39°C° 0 mm 3 mps 696 mmHg 17%
    14:00 +42°C° 0 mm 3 mps 696 mmHg 14%
    15:00 +40°C° 0 mm 3 mps 696 mmHg 14%
    16:00 +41°C° 0 mm 4 mps 696 mmHg 15%
    17:00 +40°C° 0 mm 5 mps 696 mmHg 15%
    18:00 +37°C° 0 mm 4 mps 696 mmHg 20%
    19:00 +35°C° 0 mm 3 mps 696 mmHg 26%
    20:00 +32°C° 0 mm 2 mps 696 mmHg 31%
    21:00 +31°C° 0 mm 2 mps 696 mmHg 35%
    22:00 +30°C° 0 mm 2 mps 696 mmHg 39%
    23:00 +29°C° 0 mm 2 mps 696 mmHg 44%

    26 June, Wednesday

    Time Temperature Precipitation Wind Pressure Humidity
    00:00 +28°C° 0 mm 2 mps 696 mmHg 45%
    01:00 +28°C° 0 mm 1 mps 696 mmHg 46%
    02:00 +27°C° 0 mm 1 mps 695 mmHg 47%
    03:00 +27°C° 0 mm 1 mps 696 mmHg 48%
    04:00 +26°C° 0 mm 1 mps 696 mmHg 49%
    05:00 +24°C° 0 mm 0 mps 696 mmHg 50%
    06:00 +28°C° 0 mm 1 mps 696 mmHg 45%
    07:00 +30°C° 0 mm 1 mps 696 mmHg 40%
    08:00 +32°C° 0 mm 1 mps 697 mmHg 34%
    09:00 +33°C° 0 mm 1 mps 697 mmHg 31%
    10:00 +36°C° 0 mm 2 mps 697 mmHg 27%
    11:00 +38°C° 0 mm 2 mps 697 mmHg 23%
    12:00 +39°C° 0 mm 3 mps 696 mmHg 21%
    13:00 +40°C° 0 mm 3 mps 696 mmHg 19%
    14:00 +41°C° 0 mm 4 mps 696 mmHg 17%
    15:00 +41°C° 0 mm 4 mps 696 mmHg 17%
    16:00 +41°C° 0 mm 5 mps 696 mmHg 17%
    17:00 +41°C° 0 mm 5 mps 696 mmHg 17%
    18:00 +38°C° 0 mm 4 mps 696 mmHg 20%
    19:00 +36°C° 0 mm 3 mps 696 mmHg 23%
    20:00 +34°C° 0 mm 2 mps 696 mmHg 26%
    21:00 +32°C° 0 mm 2 mps 696 mmHg 28%
    22:00 +31°C° 0 mm 2 mps 696 mmHg 31%
    23:00 +30°C° 0 mm 2 mps 696 mmHg 33%
    Show more